sat.trackr.live / text

‹ back to catalog

STARLINK-36125

NORAD 67036 · 2025-294G

PAYLOAD ACTIVE UNKNOWN

§ Identity

Operator
Country
US
Launch date
2025-12-11
Launch site
AFETR
Launch vehicle
Mass (kg)
RCS (m²)

Purposes: comms

External: N2YO · Heavens-Above · Gunter

§ Orbital elements

Epoch: 2026-09-20T08:53:36.330432Z

Period
94.27 min
Inclination
43.0015°
Eccentricity
0.0000953
Mean motion
15.27588355 rev/d
Perigee alt
482.4 km
Apogee alt
483.7 km
Semi-major
6,861.2 km
B*
6.1134e-4
RAAN
18.5725°
Arg perigee
275.4818°
Mean anomaly
84.5925°
Rev number
4,457

§ Raw data

STARLINK-361251 67036U 25294G   26263.37055938  .00016603  00000+0  61134-3 0  99962 67036  43.0015  18.5725 0000953 275.4818  84.5925 15.27588355 44579

JSON: /api/v1/satellites/67036 · /tle

For live sub-satellite position, see the globe view (requires WebGL).

§ Visibility from observer

Set your observer location to see the next 7 days of passes ≥ 10°. The values pass through the URL so the page stays shareable.

No JS? Fill the form by hand. The geolocation button needs JavaScript.